Flag for U.S.A. Weather past 2 weeks in Talkeetna, Alaska, U.S.A.

Now
67 °F

Sunny.


Feels Like: 67 °F
Forecast: 47 / 71 °F
Wind: 6 mph from North

Location: Talkeetna Weather Reporting Station

Current Time: May 27, 2015 at 6:40:50 PM

Latest Report: May 27, 2015 at 5:53 PM


Visibility: 10 mi

Pressure: 30.19 "Hg

Humidity: 33%

Dew point: 37 °F

Location of TalkeetnaLocation

Historic Weather in Talkeetna — Graph

°F

Talkeetna temperature yesterday

Maximum temperature yesterday: 61 °F (at 6:53 PM)
Minimum temperature yesterday: 42 °F (at 5:53 AM)
Average temperature yesterday: 53 °F

Past Weeks' High & Low Weather Summary

 TemperatureHumidityPressure
High74 °F (May 22, 5:53 PM)100% (May 17, 3:53 AM)30.31 "Hg (May 17, 3:53 AM)
Low33 °F (May 13, 5:53 AM)21% (May 18, 6:53 PM)29.71 "Hg (May 15, 4:53 PM)
Average54 °F59%30.07 "Hg
* Reported May 12 4:53 PM — May 27 4:53 PM, Talkeetna, Weather by CustomWeather, © 2015

Note: Actual official high and low records may vary slightly from our data, if they occured in-between our weather recording intervals... More about our weather records

Advertising

Talkeetna weather history for previous 24 hours

 ConditionsComfort  
Time TempWeatherWind HumidityBarometerVisibility
4:53 PM
Wed, May 27
65 °FSunny.8 mph34%30.20 "Hg10 mi
3:53 PM65 °FSunny.6 mph34%30.21 "Hg10 mi
2:53 PM63 °FSunny.5 mph35%30.22 "Hg10 mi
1:53 PM60 °FSunny.No wind36%30.23 "Hg10 mi
12:53 PM58 °FSunny.3 mph41%30.24 "Hg10 mi
11:53 AM54 °FSunny.5 mph45%30.26 "Hg10 mi
10:53 AM52 °FSunny.6 mph47%30.28 "Hg10 mi
9:53 AM51 °FSunny.5 mph50%30.29 "Hg10 mi
8:53 AM48 °FSunny.5 mph54%30.31 "Hg10 mi
7:53 AM46 °FSunny.N/A66%30.31 "Hg10 mi
6:53 AM41 °FSunny.N/A89%30.31 "Hg10 mi
5:53 AM38 °FSunny.N/A93%30.31 "Hg10 mi
4:53 AM39 °FClear.N/A96%30.29 "Hg10 mi
3:53 AM45 °FClear.N/A60%30.28 "Hg10 mi
2:53 AM48 °FOvercast.N/A48%30.27 "Hg10 mi
1:53 AM49 °FPassing clouds.N/A44%30.26 "Hg10 mi
12:53 AM51 °FOvercast.N/A46%30.24 "Hg10 mi
11:53 PM
Tue, May 26
52 °FMostly cloudy.N/A49%30.22 "Hg10 mi
10:53 PM55 °FPartly sunny.N/A47%30.19 "Hg10 mi
9:53 PM57 °FOvercast.N/A49%30.16 "Hg10 mi
8:53 PM59 °FPartly sunny.N/A46%30.14 "Hg10 mi
7:53 PM60 °FOvercast.N/A46%30.13 "Hg10 mi
6:53 PM61 °FSunny.N/A44%30.12 "Hg10 mi
Weather by CustomWeather, © 2015

See weather overviewHow to use our weather pages